RYR68GA EGCC-EINN

Flight info

Callsign RYR68GA
Flight time 0h 51m
Altitude 34000
Route EKLAD Y53 WAL L10 PENIL M144 BAGSO DCT PELIG DCT DIGAN DIGAN2D
Aircraft B738/M-SDE2E3FGHIRWXY/LB1

Departure

Time 2026-05-07 21:18
Airport Manchester Airport (EGCC)

Arrival

Time 2026-05-07 22:09
Airport Shannon Airport (EINN)
Time Latitude Longitude Altitude Speed Heading
2026-05-07 20:46 53.36090 -2.26798 247 ft 0 kts 313°
2026-05-07 20:46 53.36085 -2.26794 247 ft 0 kts 315°
2026-05-07 21:09 53.36077 -2.26781 247 ft 3 kts 316°
2026-05-07 21:09 53.36062 -2.26758 247 ft 3 kts 324°
2026-05-07 21:09 53.36046 -2.26742 247 ft 3 kts 348°
2026-05-07 21:09 53.36031 -2.26741 247 ft 2 kts 41°
2026-05-07 21:10 53.36028 -2.26746 247 ft 0 kts 51°
2026-05-07 21:13 53.36034 -2.26734 247 ft 4 kts 51°
2026-05-07 21:14 53.36065 -2.26664 247 ft 11 kts 65°
2026-05-07 21:14 53.36046 -2.26529 252 ft 13 kts 78°
2026-05-07 21:14 53.36096 -2.26413 251 ft 13 kts 51°
2026-05-07 21:14 53.36141 -2.26307 251 ft 8 kts 75°
2026-05-07 21:15 53.36140 -2.26273 252 ft 0 kts 104°
2026-05-07 21:16 53.36138 -2.26264 252 ft 3 kts 114°
2026-05-07 21:16 53.36117 -2.26225 255 ft 5 kts 138°
2026-05-07 21:17 53.36087 -2.26181 258 ft 8 kts 141°
2026-05-07 21:17 53.36038 -2.26138 257 ft 8 kts 192°
2026-05-07 21:17 53.35997 -2.26207 259 ft 18 kts 230°
2026-05-07 21:17 53.35752 -2.26714 266 ft 93 kts 231°
2026-05-07 21:18 53.35195 -2.27854 249 ft 158 kts 229°
2026-05-07 21:18 53.34442 -2.29406 695 ft 180 kts 231°
2026-05-07 21:18 53.33647 -2.31154 1393 ft 196 kts 231°
2026-05-07 21:18 53.32833 -2.33009 2107 ft 199 kts 231°
2026-05-07 21:19 53.32101 -2.34951 2784 ft 201 kts 244°
2026-05-07 21:19 53.31848 -2.37269 3414 ft 210 kts 268°
2026-05-07 21:19 53.31949 -2.39769 3920 ft 221 kts 272°
2026-05-07 21:19 53.32126 -2.42410 4443 ft 236 kts 275°
2026-05-07 21:20 53.32309 -2.45198 5079 ft 243 kts 268°
2026-05-07 21:20 53.32038 -2.47986 5745 ft 246 kts 250°
2026-05-07 21:20 53.31471 -2.50719 6412 ft 253 kts 250°
2026-05-07 21:20 53.30918 -2.53556 7020 ft 259 kts 249°
2026-05-07 21:21 53.30318 -2.56386 7845 ft 258 kts 249°
2026-05-07 21:21 53.29743 -2.59208 8777 ft 255 kts 249°
2026-05-07 21:21 53.29194 -2.62020 9668 ft 254 kts 249°
2026-05-07 21:21 53.28671 -2.64803 10402 ft 258 kts 250°
2026-05-07 21:22 53.28128 -2.67772 10724 ft 275 kts 250°
2026-05-07 21:22 53.27568 -2.70880 11295 ft 282 kts 251°
2026-05-07 21:22 53.27008 -2.74068 11963 ft 289 kts 252°
2026-05-07 21:22 53.26460 -2.77347 12647 ft 297 kts 253°
2026-05-07 21:23 53.25941 -2.80707 13427 ft 301 kts 256°
2026-05-07 21:23 53.25756 -2.84210 14120 ft 311 kts 275°
2026-05-07 21:23 53.26390 -2.87735 14636 ft 328 kts 295°
2026-05-07 21:23 53.27803 -2.90894 14856 ft 352 kts 312°
2026-05-07 21:24 53.29600 -2.93766 15429 ft 361 kts 314°
2026-05-07 21:24 53.31380 -2.96753 16158 ft 363 kts 310°
2026-05-07 21:24 53.33060 -2.99923 16927 ft 365 kts 307°
2026-05-07 21:24 53.34637 -3.03205 17650 ft 368 kts 305°
2026-05-07 21:25 53.36190 -3.06634 18348 ft 372 kts 304°
2026-05-07 21:25 53.37741 -3.10136 18968 ft 376 kts 303°
2026-05-07 21:25 53.39299 -3.13668 19602 ft 378 kts 303°
2026-05-07 21:25 53.40847 -3.17247 20226 ft 381 kts 303°
2026-05-07 21:26 53.42396 -3.20884 20835 ft 384 kts 302°
2026-05-07 21:26 53.43950 -3.24551 21423 ft 388 kts 302°
2026-05-07 21:26 53.45519 -3.28255 22018 ft 391 kts 302°
2026-05-07 21:26 53.47103 -3.31991 22604 ft 394 kts 302°
2026-05-07 21:27 53.48702 -3.35764 23180 ft 398 kts 302°
2026-05-07 21:27 53.50290 -3.39514 23718 ft 401 kts 302°
2026-05-07 21:27 53.51913 -3.43350 24175 ft 404 kts 302°
2026-05-07 21:27 53.53543 -3.47207 24651 ft 407 kts 302°
2026-05-07 21:28 53.55188 -3.51104 25115 ft 409 kts 302°
2026-05-07 21:28 53.56838 -3.55017 25562 ft 412 kts 302°
2026-05-07 21:28 53.58501 -3.58971 25997 ft 415 kts 302°
2026-05-07 21:28 53.60089 -3.63041 26432 ft 416 kts 295°
2026-05-07 21:29 53.61223 -3.67506 26841 ft 415 kts 285°
2026-05-07 21:29 53.61900 -3.72219 27252 ft 414 kts 275°
2026-05-07 21:29 53.62134 -3.76987 27677 ft 415 kts 270°
2026-05-07 21:29 53.62284 -3.81850 28075 ft 417 kts 270°
2026-05-07 21:30 53.62450 -3.86745 28497 ft 419 kts 271°
2026-05-07 21:30 53.62638 -3.91643 29076 ft 418 kts 271°
2026-05-07 21:30 53.62837 -3.96503 29684 ft 415 kts 271°
2026-05-07 21:30 53.63034 -4.01342 30228 ft 413 kts 271°
2026-05-07 21:31 53.63225 -4.06168 30651 ft 413 kts 271°
2026-05-07 21:31 53.63413 -4.10999 31073 ft 412 kts 271°
2026-05-07 21:31 53.63598 -4.15806 31549 ft 411 kts 271°
2026-05-07 21:31 53.63778 -4.20534 32021 ft 409 kts 270°
2026-05-07 21:32 53.63959 -4.25302 32460 ft 408 kts 270°
2026-05-07 21:32 53.64137 -4.30072 32864 ft 407 kts 270°
2026-05-07 21:32 53.64314 -4.34830 33265 ft 407 kts 270°
2026-05-07 21:32 53.64488 -4.39582 33680 ft 406 kts 270°
2026-05-07 21:33 53.64660 -4.44320 34022 ft 406 kts 270°
2026-05-07 21:33 53.64830 -4.49117 33993 ft 412 kts 270°
2026-05-07 21:33 53.65166 -4.58656 34001 ft 407 kts 270°
2026-05-07 21:34 53.65491 -4.68098 34021 ft 403 kts 270°
2026-05-07 21:34 53.65809 -4.77535 34005 ft 403 kts 270°
2026-05-07 21:35 53.66120 -4.86984 33998 ft 404 kts 270°
2026-05-07 21:35 53.66426 -4.96440 33994 ft 404 kts 270°
2026-05-07 21:36 53.66693 -5.04818 33987 ft 404 kts 270°
2026-05-07 21:36 53.66987 -5.14274 33986 ft 404 kts 270°
2026-05-07 21:37 53.67266 -5.23731 33993 ft 404 kts 270°
2026-05-07 21:37 53.67469 -5.30864 33984 ft 404 kts 270°
2026-05-07 21:38 53.67734 -5.40259 33979 ft 403 kts 270°
2026-05-07 21:38 53.67613 -5.49654 33981 ft 399 kts 258°
2026-05-07 21:39 53.65954 -5.58438 33976 ft 386 kts 245°
2026-05-07 21:39 53.64896 -5.62568 33664 ft 381 kts 245°
2026-05-07 21:39 53.63862 -5.66566 33363 ft 374 kts 245°
2026-05-07 21:40 53.62828 -5.70560 33033 ft 370 kts 245°
2026-05-07 21:40 53.61808 -5.74515 32659 ft 367 kts 245°
2026-05-07 21:40 53.60800 -5.78439 32313 ft 364 kts 245°
2026-05-07 21:40 53.59801 -5.82337 31934 ft 361 kts 245°
2026-05-07 21:41 53.58811 -5.86204 31576 ft 359 kts 245°
2026-05-07 21:41 53.57826 -5.90045 31226 ft 356 kts 245°
2026-05-07 21:41 53.56848 -5.93860 30894 ft 354 kts 245°
2026-05-07 21:41 53.55874 -5.97654 30553 ft 352 kts 245°
2026-05-07 21:42 53.54905 -6.01423 30213 ft 350 kts 244°
2026-05-07 21:42 53.53953 -6.05120 29851 ft 349 kts 244°
2026-05-07 21:42 53.52991 -6.08849 29462 ft 346 kts 244°
2026-05-07 21:42 53.52037 -6.12541 29114 ft 343 kts 244°
2026-05-07 21:43 53.51089 -6.16202 28759 ft 340 kts 244°
2026-05-07 21:43 53.50149 -6.19829 28401 ft 338 kts 244°
2026-05-07 21:43 53.49213 -6.23434 28060 ft 335 kts 244°
2026-05-07 21:43 53.48284 -6.27007 27697 ft 333 kts 244°
2026-05-07 21:44 53.47358 -6.30561 27348 ft 331 kts 244°
2026-05-07 21:44 53.46438 -6.34086 27019 ft 329 kts 244°
2026-05-07 21:44 53.45535 -6.37544 26679 ft 327 kts 244°
2026-05-07 21:44 53.44624 -6.41024 26346 ft 325 kts 244°
2026-05-07 21:45 53.43717 -6.44484 26008 ft 323 kts 244°
2026-05-07 21:45 53.42814 -6.47927 25684 ft 322 kts 244°
2026-05-07 21:45 53.41913 -6.51352 25353 ft 320 kts 244°
2026-05-07 21:45 53.41017 -6.54757 25028 ft 319 kts 244°
2026-05-07 21:46 53.40122 -6.58149 24692 ft 318 kts 244°
2026-05-07 21:46 53.39230 -6.61526 24369 ft 317 kts 244°
2026-05-07 21:46 53.38352 -6.64849 24046 ft 316 kts 244°
2026-05-07 21:46 53.37464 -6.68202 23727 ft 315 kts 244°
2026-05-07 21:47 53.36576 -6.71549 23392 ft 314 kts 244°
2026-05-07 21:47 53.35691 -6.74881 23007 ft 313 kts 244°
2026-05-07 21:47 53.34811 -6.78190 22659 ft 311 kts 244°
2026-05-07 21:47 53.33931 -6.81491 22328 ft 309 kts 244°
2026-05-07 21:48 53.33062 -6.84753 22002 ft 307 kts 244°
2026-05-07 21:48 53.32194 -6.88001 21681 ft 305 kts 244°
2026-05-07 21:48 53.31333 -6.91220 21364 ft 303 kts 244°
2026-05-07 21:48 53.30474 -6.94427 21042 ft 301 kts 244°
2026-05-07 21:49 53.29630 -6.97573 20730 ft 300 kts 244°
2026-05-07 21:49 53.28778 -7.00743 20416 ft 298 kts 244°
2026-05-07 21:49 53.27929 -7.03900 20100 ft 297 kts 244°
2026-05-07 21:49 53.27082 -7.07043 19793 ft 296 kts 244°
2026-05-07 21:50 53.26239 -7.10168 19477 ft 295 kts 244°
2026-05-07 21:50 53.25398 -7.13283 19176 ft 294 kts 244°
2026-05-07 21:50 53.24557 -7.16393 18866 ft 293 kts 244°
2026-05-07 21:50 53.23720 -7.19486 18571 ft 292 kts 244°
2026-05-07 21:51 53.22884 -7.22572 18267 ft 292 kts 244°
2026-05-07 21:51 53.22058 -7.25614 17922 ft 291 kts 244°
2026-05-07 21:51 53.21224 -7.28684 17592 ft 290 kts 244°
2026-05-07 21:51 53.20390 -7.31742 17275 ft 288 kts 244°
2026-05-07 21:52 53.19554 -7.34760 17060 ft 283 kts 243°
2026-05-07 21:52 53.18692 -7.37676 16853 ft 279 kts 242°
2026-05-07 21:52 53.17824 -7.40557 16568 ft 277 kts 242°
2026-05-07 21:52 53.16956 -7.43423 16257 ft 277 kts 242°
2026-05-07 21:53 53.16091 -7.46283 15961 ft 276 kts 242°
2026-05-07 21:53 53.15241 -7.49096 15674 ft 275 kts 242°
2026-05-07 21:53 53.14381 -7.51945 15370 ft 275 kts 242°
2026-05-07 21:53 53.13524 -7.54786 15071 ft 274 kts 242°
2026-05-07 21:54 53.12668 -7.57620 14769 ft 274 kts 242°
2026-05-07 21:54 53.11811 -7.60456 14470 ft 274 kts 242°
2026-05-07 21:54 53.10956 -7.63285 14176 ft 274 kts 242°
2026-05-07 21:54 53.10099 -7.66118 13879 ft 274 kts 242°
2026-05-07 21:55 53.09238 -7.68959 13550 ft 275 kts 242°
2026-05-07 21:55 53.08376 -7.71804 13209 ft 275 kts 242°
2026-05-07 21:55 53.07525 -7.74607 12892 ft 275 kts 242°
2026-05-07 21:55 53.06662 -7.77448 12574 ft 275 kts 242°
2026-05-07 21:56 53.05800 -7.80281 12259 ft 275 kts 242°
2026-05-07 21:56 53.04938 -7.83111 11942 ft 274 kts 242°
2026-05-07 21:56 53.04076 -7.85939 11638 ft 274 kts 242°
2026-05-07 21:56 53.03215 -7.88760 11331 ft 274 kts 242°
2026-05-07 21:57 53.02354 -7.91577 11035 ft 273 kts 242°
2026-05-07 21:57 53.01494 -7.94389 10742 ft 273 kts 242°
2026-05-07 21:57 53.00634 -7.97194 10445 ft 273 kts 242°
2026-05-07 21:57 52.99774 -8.00001 10159 ft 272 kts 242°
2026-05-07 21:58 52.98936 -8.02730 10038 ft 266 kts 242°
2026-05-07 21:58 52.98100 -8.05452 9759 ft 265 kts 242°
2026-05-07 21:58 52.97264 -8.08169 9452 ft 264 kts 242°
2026-05-07 21:58 52.96430 -8.10880 9165 ft 264 kts 242°
2026-05-07 21:59 52.95595 -8.13585 8890 ft 263 kts 242°
2026-05-07 21:59 52.94761 -8.16283 8609 ft 262 kts 242°
2026-05-07 21:59 52.93937 -8.18975 8334 ft 262 kts 244°
2026-05-07 21:59 52.93507 -8.21898 8054 ft 263 kts 264°
2026-05-07 22:00 52.93380 -8.24868 7795 ft 262 kts 264°
2026-05-07 22:00 52.93245 -8.27870 7530 ft 261 kts 264°
2026-05-07 22:00 52.93101 -8.30861 7254 ft 260 kts 263°
2026-05-07 22:00 52.92950 -8.33846 6985 ft 260 kts 263°
2026-05-07 22:01 52.92795 -8.36823 6710 ft 257 kts 263°
2026-05-07 22:01 52.92640 -8.39751 6428 ft 252 kts 263°
2026-05-07 22:01 52.92488 -8.42619 6135 ft 248 kts 263°
2026-05-07 22:01 52.92109 -8.45340 5817 ft 241 kts 241°
2026-05-07 22:02 52.91164 -8.47577 5554 ft 235 kts 232°
2026-05-07 22:02 52.90186 -8.49668 5264 ft 230 kts 232°
2026-05-07 22:02 52.89219 -8.51743 4982 ft 225 kts 232°
2026-05-07 22:02 52.88272 -8.53780 4687 ft 221 kts 232°
2026-05-07 22:03 52.87356 -8.55751 4438 ft 211 kts 232°
2026-05-07 22:03 52.86476 -8.57644 4117 ft 204 kts 232°
2026-05-07 22:03 52.85628 -8.59468 3851 ft 196 kts 232°
2026-05-07 22:03 52.84812 -8.61225 3580 ft 190 kts 233°
2026-05-07 22:04 52.84020 -8.62929 3331 ft 183 kts 233°
2026-05-07 22:04 52.83252 -8.64581 3105 ft 179 kts 233°
2026-05-07 22:04 52.82513 -8.66167 2966 ft 169 kts 233°
2026-05-07 22:04 52.81809 -8.67676 2785 ft 163 kts 233°
2026-05-07 22:05 52.81129 -8.69134 2622 ft 161 kts 233°
2026-05-07 22:05 52.80447 -8.70598 2539 ft 161 kts 233°
2026-05-07 22:05 52.79762 -8.72065 2501 ft 160 kts 233°
2026-05-07 22:05 52.79093 -8.73499 2486 ft 155 kts 233°
2026-05-07 22:06 52.78437 -8.74898 2441 ft 153 kts 232°
2026-05-07 22:06 52.77796 -8.76238 2218 ft 146 kts 232°
2026-05-07 22:06 52.77173 -8.77556 1990 ft 147 kts 233°
2026-05-07 22:06 52.76529 -8.78959 1847 ft 153 kts 234°
2026-05-07 22:07 52.75924 -8.80291 1688 ft 138 kts 234°
2026-05-07 22:07 52.75366 -8.81500 1407 ft 133 kts 233°
2026-05-07 22:07 52.74773 -8.82730 1212 ft 139 kts 230°
2026-05-07 22:07 52.74131 -8.83910 1083 ft 136 kts 231°
2026-05-07 22:08 52.73630 -8.85157 837 ft 132 kts 238°
2026-05-07 22:08 52.73074 -8.86425 675 ft 139 kts 231°
2026-05-07 22:08 52.72465 -8.87690 522 ft 141 kts 231°
2026-05-07 22:08 52.71865 -8.88963 319 ft 142 kts 230°
2026-05-07 22:09 52.71267 -8.90225 152 ft 139 kts 229°
2026-05-07 22:09 52.70672 -8.91481 12 ft 133 kts 231°
2026-05-07 22:09 52.70165 -8.92547 18 ft 95 kts 232°
2026-05-07 22:09 52.69876 -8.93161 26 ft 44 kts 232°
2026-05-07 22:10 52.69704 -8.93525 27 ft 39 kts 232°
2026-05-07 22:10 52.69575 -8.93800 27 ft 27 kts 232°
2026-05-07 22:10 52.69463 -8.94037 29 ft 25 kts 232°
2026-05-07 22:10 52.69373 -8.94200 33 ft 13 kts 204°
2026-05-07 22:11 52.69299 -8.94254 32 ft 7 kts 227°
2026-05-07 22:11 52.69308 -8.94326 33 ft 7 kts 329°
2026-05-07 22:11 52.69347 -8.94285 33 ft 7 kts 51°
2026-05-07 22:11 52.69378 -8.94220 32 ft 8 kts 51°
2026-05-07 22:12 52.69416 -8.94142 33 ft 10 kts 51°
2026-05-07 22:12 52.69473 -8.94022 31 ft 17 kts 52°
2026-05-07 22:12 52.69559 -8.93834 28 ft 24 kts 53°
2026-05-07 22:12 52.69670 -8.93600 27 ft 26 kts 52°
2026-05-07 22:13 52.69776 -8.93376 27 ft 24 kts 52°
2026-05-07 22:13 52.69875 -8.93165 25 ft 23 kts 52°
2026-05-07 22:13 52.69928 -8.93012 23 ft 13 kts 96°
2026-05-07 22:13 52.69874 -8.92904 21 ft 12 kts 137°
2026-05-07 22:14 52.69813 -8.92807 21 ft 12 kts 135°
2026-05-07 22:14 52.69754 -8.92710 21 ft 12 kts 135°
2026-05-07 22:14 52.69697 -8.92616 21 ft 11 kts 135°
2026-05-07 22:14 52.69641 -8.92525 21 ft 11 kts 135°
2026-05-07 22:15 52.69587 -8.92437 21 ft 11 kts 135°
2026-05-07 22:15 52.69537 -8.92349 21 ft 10 kts 127°
2026-05-07 22:15 52.69499 -8.92279 21 ft 7 kts 158°
2026-05-07 22:15 52.69450 -8.92277 21 ft 7 kts 182°
2026-05-07 22:16 52.69406 -8.92281 21 ft 5 kts 184°
2026-05-07 22:16 52.69382 -8.92284 21 ft 3 kts 183°
2026-05-07 22:16 52.69381 -8.92284 21 ft 0 kts 183°